Theta_e
311 311 313 315 317 318 321 323 325 326 327 328 328 328 328 328 329 329 330 329 330 330 330 330 330 330 330 329 330 330 331 331 331 331 329 328 329 332 332 332 331 331 331 330 329 330 330 331 331 331 330 330 330 330 329 329 329 329 329 329 328 328 328 328 329 327 324 323 322 322 323 324 323 323 323 322 321 319 316 310 303 301 304 305 303
309 310 311 313 314 316 317 320 322 323 326 327 328 328 328 328 328 329 329 330 330 330 331 330 330 330 330 330 330 331 331 331 331 330 329 328 329 331 332 332 332 331 331 331 330 331 331 331 331 330 330 330 330 330 329 329 329 329 329 329 329 328 327 327 328 328 324 321 319 320 322 323 322 322 322 321 321 319 317 312 304 301 303 305 304
307 308 309 310 311 313 314 316 318 320 322 325 327 328 329 329 329 328 329 330 330 330 331 331 330 330 330 330 330 331 331 331 330 330 330 329 329 331 332 332 331 332 332 332 331 331 331 331 331 330 330 330 330 330 329 329 330 330 329 329 329 328 328 327 327 328 326 322 318 318 320 321 320 320 320 320 319 319 319 315 307 302 303 305 305
307 308 308 309 309 310 312 313 314 316 318 321 324 326 328 329 329 329 329 330 330 330 330 330 330 330 330 329 330 331 331 330 329 330 331 331 330 331 332 332 331 331 331 332 331 331 330 331 331 330 330 330 331 330 330 330 330 330 329 329 329 328 327 327 327 327 326 323 319 317 318 319 319 319 319 318 317 318 319 318 311 304 302 304 305
306 307 307 308 308 309 310 311 312 314 316 318 321 323 326 328 329 329 329 330 330 330 330 330 329 329 330 329 330 331 331 330 329 330 331 331 331 331 331 331 331 331 331 331 332 331 331 331 331 330 330 331 331 330 330 330 330 330 330 329 329 328 327 326 326 326 326 326 321 317 316 317 316 316 317 316 315 316 317 317 314 307 302 303 305
306 306 307 307 307 308 309 310 311 312 314 316 318 321 323 326 327 328 329 329 329 329 329 329 329 329 329 329 330 331 331 330 330 331 332 331 331 331 331 330 330 331 331 331 331 332 332 332 331 331 330 331 331 330 330 330 330 329 330 330 329 329 327 326 326 325 325 326 323 318 316 315 314 314 314 314 314 315 316 316 313 308 303 302 304
305 305 306 306 307 307 308 309 310 311 311 313 315 318 321 324 326 327 328 328 328 329 329 329 329 330 330 329 329 331 331 330 329 331 331 331 331 330 330 330 330 331 331 331 330 331 331 332 331 331 331 331 331 331 330 330 330 330 330 330 329 329 328 327 326 325 325 326 324 321 318 316 315 314 313 313 313 313 314 315 313 309 305 303 304
304 305 305 306 306 307 307 308 309 309 310 311 313 317 320 323 325 326 327 327 327 328 328 328 329 329 329 329 329 330 330 329 329 330 331 331 330 330 330 330 330 331 331 330 329 329 330 330 330 330 330 331 331 330 330 330 330 330 330 330 329 329 329 328 326 325 325 325 324 322 319 317 315 313 312 311 311 312 312 313 313 311 308 305 304
304 304 305 305 305 306 306 307 307 308 309 310 312 315 318 321 324 325 326 327 327 327 327 328 328 329 329 329 329 330 330 329 329 330 330 330 330 330 330 330 331 331 331 330 329 329 329 329 329 330 330 330 330 329 329 329 330 330 330 329 329 329 329 328 326 325 325 325 324 322 319 317 316 313 311 311 312 313 312 310 311 312 310 308 307
304 304 304 304 305 305 305 306 307 307 308 309 310 313 316 320 322 324 325 326 326 327 327 327 327 328 329 328 328 329 329 328 329 330 330 330 330 329 329 329 330 330 330 329 329 329 329 329 329 329 330 329 328 328 328 329 329 330 330 329 329 329 329 328 327 326 325 326 325 321 318 318 316 314 313 312 312 313 312 310 310 311 310 309 310
303 304 304 304 304 304 305 305 306 306 307 307 308 310 313 317 320 323 324 325 326 326 326 326 326 327 328 327 328 329 329 328 328 329 329 329 328 328 329 328 328 328 329 329 329 329 329 329 328 329 328 328 327 327 328 328 328 328 329 328 328 329 329 328 328 326 326 326 322 317 316 317 315 313 314 313 312 311 311 310 311 311 311 311 313
302 303 304 304 304 304 304 305 305 305 306 306 307 308 310 314 317 320 322 324 325 326 326 326 326 326 326 326 327 328 328 327 328 329 329 328 327 327 328 327 327 327 328 329 329 329 328 328 328 327 327 326 326 327 327 327 328 328 327 327 327 327 327 327 327 326 325 324 319 314 315 318 316 314 313 312 311 310 310 310 310 312 312 312 314
301 302 303 303 304 303 304 304 304 304 304 305 305 306 307 309 312 315 318 320 322 324 325 325 325 324 325 325 326 327 327 327 327 328 328 327 327 327 327 327 326 326 327 327 328 328 327 326 326 326 325 325 325 326 326 326 327 327 326 326 326 326 327 327 327 325 323 321 318 314 315 317 317 316 315 312 311 311 311 311 311 312 313 313 314
301 301 302 302 303 303 303 303 303 304 304 304 304 304 304 305 307 310 313 315 317 320 322 323 323 323 323 323 323 325 326 327 327 327 328 327 326 326 326 326 326 326 325 325 326 326 325 325 325 324 323 324 325 325 325 326 326 325 324 324 324 324 325 325 325 324 322 320 319 318 317 317 316 317 318 314 311 311 312 312 312 312 312 313 313
301 301 301 302 302 303 303 303 303 303 303 303 303 303 304 303 304 305 307 309 311 313 315 317 319 320 320 321 321 321 322 324 325 326 327 327 326 326 325 325 324 324 323 323 324 324 324 324 324 323 323 324 324 324 324 324 323 322 320 319 319 319 320 321 322 322 321 320 319 318 317 315 314 314 313 310 309 311 313 313 314 314 314 315 316
301 301 301 301 302 302 302 303 303 303 303 303 302 302 303 303 302 303 304 305 307 308 309 310 312 314 315 317 317 316 316 318 320 323 325 325 325 324 324 323 323 322 322 322 323 323 323 323 322 322 322 323 322 322 322 322 320 318 316 314 313 314 314 315 316 317 317 317 316 315 315 314 313 313 312 311 312 314 315 315 315 315 317 318 317
301 301 301 301 302 302 302 302 302 302 302 302 302 302 302 302 301 301 302 302 303 304 305 305 306 308 310 312 312 313 314 315 316 319 322 323 323 323 322 321 321 321 321 321 322 322 322 322 322 321 321 321 319 317 318 318 317 315 313 310 309 309 309 310 311 311 312 313 313 313 313 312 313 312 312 313 313 313 314 315 313 314 316 317 317
300 301 301 301 301 302 302 302 302 302 302 302 302 302 301 301 301 301 301 300 300 301 302 303 304 305 307 308 309 309 311 312 314 316 318 320 321 321 321 320 320 320 320 320 320 320 321 320 320 320 319 317 315 314 315 315 314 313 311 309 307 306 306 306 307 308 308 309 308 308 308 308 308 307 307 308 309 310 312 312 310 311 313 314 314
300 300 301 301 301 302 302 302 302 302 303 302 302 301 301 301 300 300 300 300 300 300 300 301 301 302 303 305 307 307 308 309 311 313 315 316 317 319 320 319 318 317 317 317 317 318 318 318 318 317 317 315 313 313 313 314 314 313 313 311 307 305 305 305 306 306 306 306 306 306 305 305 305 305 304 304 304 305 306 305 305 308 310 309 309
299 300 301 301 301 301 302 302 302 302 302 302 301 301 300 300 300 299 299 299 299 299 299 299 299 298 299 302 305 306 306 306 308 310 312 313 313 315 318 319 318 316 315 315 315 315 315 315 315 315 314 313 313 313 313 313 314 313 312 312 309 306 305 305 306 306 306 305 304 303 303 302 302 302 301 301 301 301 301 300 300 303 305 306 307
299 299 300 301 301 301 302 302 302 301 302 301 301 301 300 300 299 299 299 299 298 298 298 298 298 297 297 299 301 303 304 305 306 307 308 309 309 310 311 312 313 314 312 311 312 311 311 312 313 313 314 314 313 314 313 313 313 312 311 312 310 307 305 305 304 304 304 303 302 302 302 301 301 301 300 300 299 299 299 299 298 299 301 304 305
299 298 299 300 301 301 302 302 302 301 301 301 301 300 300 300 299 298 298 298 298 298 298 297 297 297 297 297 298 300 302 303 305 305 306 306 306 306 305 304 306 308 308 306 305 305 305 306 307 308 311 312 312 312 312 312 312 311 310 309 308 306 304 304 303 303 303 303 303 303 303 302 302 301 300 300 299 298 298 298 298 298 299 300 302
299 298 298 298 299 300 301 301 301 301 301 301 300 300 300 300 299 299 299 298 298 298 297 297 297 297 297 297 297 298 299 301 303 304 304 305 304 304 304 303 303 305 305 302 301 301 301 301 301 302 304 306 306 306 306 306 306 306 306 306 305 304 304 303 303 304 304 304 304 303 303 302 302 301 300 300 298 298 297 298 298 298 298 298 298
300 299 298 297 298 298 299 299 300 301 301 301 300 300 300 299 299 299 299 299 298 297 297 297 297 297 297 297 297 298 298 299 301 302 302 303 303 303 303 303 303 303 303 301 301 301 301 302 302 302 302 302 302 302 303 303 304 304 304 304 304 303 303 302 302 303 303 303 303 302 302 302 301 300 299 299 298 297 297 297 297 297 297 298 298
300 299 299 298 297 297 297 297 298 299 300 300 300 300 299 299 299 300 299 299 298 297 297 297 297 296 297 297 297 298 298 299 300 301 301 301 302 302 302 302 302 303 302 301 301 302 302 303 303 303 304 304 304 304 304 304 304 304 303 303 303 303 303 302 302 303 303 303 302 301 299 299 299 299 298 298 298 297 298 298 298 298 298 299 298
299 299 299 299 298 297 297 297 297 298 298 298 298 298 298 299 299 299 299 299 298 297 297 297 297 296 296 296 297 298 299 299 299 299 300 300 301 301 301 301 301 302 301 301 301 301 301 302 302 302 303 304 304 304 304 303 304 304 303 303 303 303 302 302 302 302 301 301 300 299 298 298 298 298 297 297 297 297 297 298 299 298 299 300 300
298 298 298 299 299 298 297 296 297 297 297 297 297 297 297 297 298 298 299 299 298 298 297 297 297 297 296 296 296 297 298 299 299 299 299 300 300 300 300 300 300 300 300 300 300 300 300 300 300 300 301 301 302 302 302 302 302 302 302 302 302 302 302 301 301 301 300 299 298 298 297 297 297 297 297 297 296 296 296 298 299 298 299 300 300
297 298 297 298 298 298 297 297 297 297 297 297 296 296 296 296 297 297 297 298 298 298 298 297 297 297 296 296 296 296 297 297 298 299 299 299 300 300 300 300 300 299 299 299 299 299 299 298 299 299 299 299 299 299 299 299 300 300 300 300 300 300 300 300 300 299 299 298 297 297 297 296 296 296 296 296 296 296 296 297 298 298 298 299 299
297 298 297 297 297 297 298 298 297 296 297 297 297 296 296 296 296 296 296 297 297 298 298 297 296 296 296 296 296 296 296 296 297 297 298 298 298 299 299 299 299 298 298 298 298 297 297 296 296 297 297 297 297 297 297 297 297 297 298 298 298 298 298 298 298 297 297 297 296 296 296 296 295 296 296 296 296 296 296 297 297 298 298 298 298
297 297 297 297 297 297 297 298 297 297 297 297 297 297 296 296 296 296 296 296 297 297 297 297 296 296 296 296 296 296 296 296 296 296 296 297 297 297 297 298 298 297 297 297 297 297 296 295 295 295 295 295 295 295 295 296 296 296 296 296 296 296 296 296 296 295 295 295 295 295 295 295 295 295 295 296 295 295 295 296 297 297 298 298 298
298 298 297 297 297 297 297 297 297 298 297 297 297 297 297 297 297 296 296 296 296 297 297 297 297 296 296 296 296 296 296 296 296 296 296 296 296 297 297 297 297 297 297 297 297 297 296 296 295 295 295 295 294 294 294 295 295 295 295 295 295 295 295 295 295 295 295 295 294 294 294 294 294 294 294 295 295 295 295 295 296 296 297 297 297
298 298 297 297 297 297 297 297 297 298 298 298 297 298 298 298 297 297 296 297 297 297 297 297 297 297 297 297 297 296 296 296 296 296 296 296 296 296 296 296 296 297 297 297 297 297 296 296 295 294 294 294 294 294 294 294 294 294 294 294 294 294 294 294 294 294 294 294 294 294 293 293 293 293 293 293 294 294 294 295 295 295 295 296 295
298 298 297 296 297 297 297 296 297 297 298 298 298 298 298 298 298 297 297 297 297 297 297 297 297 297 297 297 298 298 297 297 297 297 297 297 297 297 297 297 297 297 297 297 297 296 296 295 295 294 293 293 293 293 293 293 293 293 293 293 293 293 293 293 293 293 293 293 293 293 292 292 292 292 292 293 293 293 293 294 294 294 294 295 295
299 298 297 296 296 297 297 296 296 296 297 298 298 298 298 298 297 297 298 297 297 297 297 298 298 297 297 298 298 298 298 298 298 298 297 297 297 297 297 297 297 297 297 297 296 296 295 294 293 293 292 292 292 292 292 292 292 292 292 292 292 292 292 292 292 292 292 292 292 292 292 292 292 292 292 292 293 293 293 293 293 293 294 294 294
299 298 297 296 296 296 297 296 296 296 296 297 297 298 298 298 297 297 297 297 297 297 297 298 298 297 297 298 298 298 298 298 298 298 298 297 297 297 297 297 296 296 295 295 295 294 293 292 292 292 292 292 292 292 292 292 292 292 292 291 291 291 291 291 291 291 291 291 291 291 291 291 291 292 292 292 292 293 293 293 293 293 293 293 294
298 298 298 297 296 296 297 296 296 295 295 296 296 297 297 297 297 297 297 297 297 297 297 297 297 297 297 297 298 297 297 298 297 297 297 297 297 296 296 296 295 294 294 293 293 292 292 292 292 292 292 292 292 292 292 292 292 291 291 291 291 291 291 291 291 291 291 291 291 291 291 291 291 291 292 292 292 292 292 292 292 292 292 293 293
298 298 298 297 296 296 296 296 296 295 294 294 295 296 297 297 297 297 297 296 296 296 297 297 297 296 296 297 297 297 297 297 297 297 296 296 296 296 296 295 294 293 292 292 292 291 291 291 291 292 292 292 292 292 292 292 291 291 291 291 291 291 291 291 291 291 291 291 291 291 291 291 291 291 291 291 292 292 292 292 292 292 292 292 293
297 297 297 298 297 296 296 296 296 295 294 294 295 296 296 296 296 296 296 296 295 295 296 296 296 297 296 296 297 296 296 296 296 295 295 295 295 295 294 294 293 292 292 291 291 291 291 291 291 291 291 291 291 291 291 291 291 291 290 290 290 290 290 290 290 290 290 290 291 291 291 291 290 291 291 291 291 292 292 292 292 292 292 292 293
297 297 297 297 297 297 296 296 296 295 294 294 295 295 296 296 296 296 296 295 295 295 295 295 296 296 296 296 296 296 296 295 295 294 294 294 294 294 293 293 293 292 292 291 291 291 291 291 291 291 291 291 290 291 291 290 290 290 290 290 290 290 290 290 290 290 290 290 291 291 291 291 290 291 291 291 291 291 291 291 291 291 292 292 292
297 297 297 296 297 297 297 296 296 295 294 294 295 295 295 296 296 296 296 295 294 294 294 295 295 295 296 296 296 295 295 294 294 294 294 294 294 293 293 293 293 293 292 292 292 291 291 291 290 290 290 290 290 290 290 290 290 290 290 290 290 290 290 290 290 290 290 290 290 290 290 290 291 291 291 291 291 291 291 291 291 291 291 292 292
297 297 297 296 296 297 296 296 295 295 294 294 295 295 295 295 295 295 295 295 294 294 294 294 294 295 295 296 295 295 294 294 294 293 293 293 293 293 293 293 293 293 293 292 292 291 291 290 290 290 290 290 290 290 290 290 290 290 290 290 290 290 290 290 290 290 290 290 290 290 290 290 290 291 290 290 290 291 291 291 291 291 291 292 292
297 297 297 297 296 297 296 296 295 295 295 294 294 295 295 295 295 295 295 294 294 294 294 294 294 295 295 295 294 294 294 293 293 293 293 293 293 292 292 292 292 292 292 293 292 291 291 291 291 290 290 290 290 290 290 290 290 290 290 290 290 290 290 290 290 290 290 290 290 290 290 290 290 290 290 290 291 291 291 291 291 291 292 292 292
296 297 297 297 296 296 296 296 295 295 295 294 294 295 295 295 295 295 294 294 294 294 294 294 294 294 294 294 294 293 293 293 293 293 293 292 292 292 292 292 292 292 292 292 292 292 291 291 291 291 291 290 290 290 290 290 290 290 290 290 290 290 290 290 290 290 290 290 290 290 290 290 290 290 290 290 291 291 291 291 291 291 291 291 292
295 296 297 296 295 296 296 296 295 295 295 294 294 294 295 295 295 295 294 294 294 294 294 294 294 294 294 293 293 293 292 292 292 292 292 292 291 291 291 291 292 292 292 292 292 292 292 291 291 291 291 291 291 290 290 290 290 290 290 290 290 290 290 290 289 289 290 290 290 290 290 290 290 290 290 290 290 291 291 291 291 291 291 291 291
293 295 296 296 295 294 295 296 296 295 295 295 294 294 294 295 295 295 295 294 294 294 294 294 294 294 293 293 292 292 292 292 292 292 292 291 291 291 291 291 291 292 292 292 291 291 291 292 292 291 291 291 291 291 291 291 290 290 290 290 290 290 290 290 289 289 289 290 290 290 290 290 290 290 290 290 291 290 290 290 291 291 291 291 291
293 293 294 295 294 293 295 296 296 296 296 295 295 294 294 295 295 295 295 295 294 294 294 294 294 294 293 292 292 292 292 292 292 292 292 291 291 291 291 291 291 291 291 292 291 291 291 291 291 291 291 292 291 291 291 291 291 290 290 289 290 290 290 289 289 289 289 290 290 290 290 290 291 290 290 290 290 290 290 290 290 290 290 291 291
294 293 293 293 293 292 293 295 296 296 296 296 295 295 294 294 294 295 295 294 294 294 294 294 294 294 293 293 292 292 292 292 292 292 292 291 291 291 291 291 291 291 291 291 291 291 291 291 291 291 291 291 291 291 291 291 291 290 290 289 289 289 290 289 289 289 289 290 290 290 290 290 291 290 290 290 290 290 290 290 290 290 290 290 290
294 294 293 292 291 291 291 293 294 295 295 295 295 295 295 294 294 295 295 295 294 294 294 294 294 293 293 293 293 292 292 292 291 291 292 291 291 291 291 291 291 291 291 291 291 291 291 291 291 290 289 288 288 289 289 290 290 290 290 289 289 289 289 289 289 289 289 289 290 289 290 290 290 290 290 290 290 290 290 290 290 290 291 291 290
293 293 292 291 290 290 291 291 292 293 293 293 293 294 294 295 295 295 295 294 294 294 294 294 294 293 293 293 293 292 292 291 291 292 292 292 291 291 291 292 291 291 291 291 291 290 290 289 288 287 287 287 287 287 287 288 288 288 289 289 289 289 289 288 289 289 289 289 289 289 289 289 289 290 289 289 289 289 289 289 289 290 291 291 290
291 291 291 290 290 290 291 291 291 292 292 292 292 293 293 294 295 295 294 294 294 294 294 294 294 293 293 293 292 292 292 291 291 291 291 292 291 291 291 291 291 291 290 290 289 289 288 287 287 287 287 287 287 287 287 287 287 287 288 288 288 288 288 288 289 289 289 289 289 289 289 289 289 289 289 289 289 289 289 289 289 289 290 291 290
290 289 289 289 290 290 291 291 291 292 292 292 293 293 293 294 295 294 294 294 294 294 294 294 294 293 293 292 292 292 292 291 291 290 290 290 290 290 290 289 289 289 289 288 288 288 287 287 287 288 288 288 288 288 288 288 288 288 288 288 288 288 288 288 288 289 289 289 289 289 289 289 289 289 289 289 289 289 289 289 289 289 290 290 290
Wind_Speed
22 21 19 18 17 16 15 14 12 10 9 9 9 9 9 10 11 12 12 13 13 13 14 14 16 17 18 21 25 25 24 24 25 23 20 20 19 16 17 19 19 15 14 17 17 17 20 19 16 17 17 16 14 13 14 16 16 14 12 11 12 12 11 10 8 5 7 9 10 12 16 16 13 14 15 15 14 12 11 11 11 12 12 12 11
20 19 19 20 19 18 18 16 14 13 10 8 9 9 9 9 10 12 12 13 12 12 13 13 14 15 17 20 23 25 25 25 24 23 22 21 19 16 17 21 20 16 15 18 19 20 20 17 15 17 17 15 14 13 14 16 15 14 13 12 12 12 13 11 9 7 6 8 10 12 16 16 12 13 15 15 16 15 13 13 13 13 14 13 12
19 18 19 20 21 21 20 19 17 16 13 10 10 10 10 10 10 12 13 13 12 13 14 14 14 15 16 21 25 26 26 25 23 24 24 23 20 18 18 19 20 19 17 18 19 20 20 17 16 17 16 15 14 14 15 16 15 13 13 14 13 12 13 12 10 8 6 8 10 11 14 16 13 13 15 16 16 16 15 14 14 15 15 14 13
18 19 19 20 21 22 22 21 20 18 16 14 13 12 12 11 12 12 12 12 12 12 15 16 15 15 17 21 26 27 27 26 24 23 23 22 21 21 20 19 20 21 20 19 19 20 20 17 17 18 16 14 14 14 15 16 15 14 13 14 13 12 13 13 11 9 8 8 9 10 12 15 14 14 16 16 16 17 17 16 16 15 16 15 14
19 19 19 20 20 21 22 22 21 21 20 18 16 15 14 13 13 12 12 12 12 11 14 16 15 16 18 21 26 28 27 26 24 23 22 21 22 22 21 21 22 21 19 19 20 21 20 18 18 19 17 15 15 14 14 14 14 14 14 14 13 12 13 14 12 10 10 9 9 10 12 13 13 15 16 15 14 16 17 18 17 16 16 16 15
20 20 20 20 20 21 21 20 20 20 21 21 19 17 17 15 14 13 13 13 12 12 14 16 16 17 19 21 25 28 28 26 24 24 23 21 21 22 22 22 21 20 19 19 19 21 21 18 18 19 19 17 17 15 14 14 14 14 15 15 13 13 13 14 13 12 12 10 9 10 12 13 12 13 15 15 13 13 14 17 18 18 18 18 17
20 20 20 20 20 21 21 21 21 21 21 22 20 19 18 17 15 15 14 14 14 13 14 16 17 18 18 19 23 28 29 27 25 25 24 22 22 22 22 21 21 20 20 19 19 19 20 19 18 20 20 18 18 17 16 15 15 15 16 15 14 13 13 13 14 13 13 11 10 9 11 12 11 10 12 15 14 13 12 13 15 17 19 19 19
19 20 20 20 21 21 21 21 22 23 22 22 21 20 18 17 16 16 15 14 14 14 14 16 17 18 18 18 21 28 30 27 27 26 24 23 22 22 22 21 21 20 19 18 18 19 19 19 19 20 19 18 18 18 17 16 14 14 15 16 15 14 13 12 13 13 13 12 11 9 9 10 10 10 10 13 13 13 16 15 12 12 16 18 18
18 19 20 20 21 21 21 20 21 22 23 24 25 23 20 18 17 16 16 16 16 15 15 18 18 19 19 18 21 28 29 28 28 27 25 24 23 23 22 21 20 19 17 16 17 18 18 16 16 18 18 17 16 16 17 16 15 14 15 17 17 15 13 12 13 14 13 13 12 10 10 10 11 12 12 15 15 13 16 19 13 9 11 12 14
19 19 19 20 21 21 21 20 21 23 23 24 26 26 22 20 18 17 17 18 18 16 16 18 19 20 20 18 21 28 29 28 28 27 25 24 23 23 22 21 19 18 19 18 15 14 15 13 13 15 15 14 14 14 14 14 15 14 15 16 17 15 14 13 14 15 14 14 13 10 8 7 9 13 14 16 17 14 14 17 14 9 9 9 9
20 20 20 20 21 21 21 21 23 24 23 23 24 26 25 21 18 18 17 19 20 18 17 19 20 21 20 18 23 29 29 27 28 26 24 23 22 22 22 20 19 19 19 19 16 14 14 14 14 14 14 13 13 13 13 13 14 15 16 16 16 16 15 14 14 15 14 14 11 11 12 11 11 12 12 13 16 16 14 14 11 8 8 8 6
21 21 21 21 21 22 22 22 24 24 24 24 23 25 26 23 19 17 17 19 21 20 20 22 22 22 21 21 26 30 28 27 28 26 24 23 21 21 21 20 20 20 19 20 19 17 16 16 15 14 13 13 13 13 13 13 14 15 16 16 16 17 18 17 16 15 14 13 10 13 18 20 17 15 13 11 14 14 12 12 10 8 8 8 6
22 22 22 22 22 22 22 22 24 25 25 24 23 23 24 24 22 20 18 17 17 19 22 24 23 21 23 25 28 28 27 27 28 27 25 22 20 20 20 20 20 20 20 20 20 19 18 17 16 15 13 13 12 13 13 14 14 15 15 16 17 18 19 20 19 17 15 13 12 14 18 20 18 15 13 12 13 12 11 11 11 10 9 8 5
22 23 23 23 22 22 22 23 23 25 25 24 23 22 21 21 21 21 19 16 13 11 14 20 22 21 21 24 25 26 26 26 27 27 25 22 20 20 20 20 20 20 20 21 20 19 19 19 18 16 14 13 13 13 14 15 15 15 15 15 15 16 18 19 19 17 15 11 10 13 16 16 15 12 10 12 14 12 10 10 10 10 9 7 6
22 24 23 23 22 22 22 23 24 25 25 24 23 23 21 20 20 20 19 16 12 8 5 9 15 17 18 20 21 21 22 24 25 26 24 22 21 20 20 19 20 20 21 22 21 21 20 20 19 17 15 14 13 13 14 16 16 15 14 12 11 12 13 14 15 16 16 12 10 12 14 13 11 9 9 12 14 12 10 9 9 9 8 7 6
23 24 23 22 22 21 21 22 23 24 25 25 24 23 22 21 20 18 17 16 13 9 6 2 4 9 12 16 17 16 15 17 21 22 22 22 22 21 20 19 19 20 21 22 22 22 21 20 18 17 16 15 13 12 13 15 16 16 15 14 12 10 8 7 8 11 13 13 11 10 10 9 9 9 11 12 11 10 9 8 8 7 6 6 6
23 23 22 22 21 20 20 21 22 23 24 25 25 24 22 21 19 18 17 17 16 14 11 8 5 3 7 9 10 10 10 12 15 17 20 22 22 22 21 20 20 20 21 22 23 22 21 20 18 17 17 16 14 13 13 15 17 19 20 20 20 20 19 16 14 13 14 16 16 15 14 13 12 12 13 13 12 11 9 7 6 5 4 4 4
23 23 22 21 20 19 19 20 20 22 23 23 23 23 22 20 19 17 17 18 17 17 16 15 13 11 10 9 9 9 8 9 12 16 18 20 22 23 23 23 22 22 22 22 23 23 22 20 20 19 18 17 17 16 16 17 20 23 24 24 25 25 24 23 22 22 21 21 20 19 17 15 14 13 12 11 11 10 7 5 5 3 2 1 1
23 23 24 23 20 18 19 20 20 21 23 23 22 22 22 21 20 19 20 20 20 20 20 20 20 20 18 17 16 15 14 12 12 15 17 19 21 23 24 25 25 24 23 23 22 22 22 21 21 21 20 20 21 21 19 17 18 20 21 22 25 27 25 24 24 23 22 21 19 18 16 14 13 12 11 10 9 8 8 7 6 4 2 2 1
23 23 25 26 23 20 21 24 24 21 22 23 23 23 22 22 23 25 26 26 26 24 24 24 25 25 23 24 24 21 19 16 13 12 14 17 21 24 26 27 28 26 24 23 22 21 21 21 21 22 23 23 23 22 18 14 15 17 19 20 24 26 25 23 22 21 21 21 20 19 18 16 14 13 12 11 10 9 8 7 6 5 4 4 3
24 24 24 26 26 25 25 27 27 25 24 24 24 25 24 24 26 28 29 30 31 29 26 26 28 28 26 28 32 29 23 18 15 12 11 14 18 21 23 26 28 29 27 24 23 22 20 20 19 20 22 23 22 19 17 15 16 18 19 20 22 25 25 24 23 22 22 22 20 19 17 16 15 14 13 12 12 11 9 8 7 7 6 5 3
24 25 24 24 26 26 25 25 26 26 26 26 26 26 24 25 28 29 30 32 33 33 29 26 27 28 27 31 37 36 29 23 19 15 12 12 13 16 19 22 25 29 28 26 25 23 21 19 18 16 17 19 19 17 16 16 17 18 19 20 23 25 26 25 23 20 19 17 16 15 14 13 13 13 12 12 12 11 10 9 8 7 7 5 3
21 23 24 24 25 25 24 24 24 24 25 26 27 27 25 24 26 26 27 29 31 31 29 26 27 29 32 35 37 36 33 30 27 22 17 13 12 13 17 19 22 27 29 28 26 25 23 21 19 16 15 16 17 16 16 16 17 17 19 21 23 25 25 24 21 17 15 14 13 13 12 11 11 11 11 11 10 9 9 8 7 7 6 5 3
20 21 23 24 24 24 24 24 23 23 23 23 24 26 27 25 22 21 21 23 24 26 27 27 28 30 32 34 33 32 33 32 31 28 23 18 17 16 17 19 21 26 30 31 29 28 27 25 22 19 18 18 19 19 19 18 19 20 21 22 23 22 22 21 20 17 16 14 13 12 11 10 10 10 10 9 8 9 9 9 8 7 6 6 5
20 19 20 21 22 23 23 23 23 23 23 20 19 22 25 23 18 18 19 20 21 24 26 26 26 26 27 28 30 31 31 30 28 26 24 23 22 22 22 23 24 27 31 32 31 29 27 25 24 22 21 20 20 21 22 22 23 23 23 22 22 21 20 20 19 17 15 12 12 12 12 11 11 10 9 9 9 9 10 9 8 8 7 7 8
19 19 18 19 20 21 21 22 22 22 23 22 20 22 23 20 16 16 18 19 20 24 26 24 23 23 24 26 28 30 29 28 26 24 23 24 25 25 26 27 28 29 31 30 29 27 25 23 22 21 20 19 20 21 22 22 22 22 21 19 18 18 18 17 17 17 15 14 14 13 12 11 11 10 9 10 11 11 10 8 8 8 8 7 8
18 18 18 18 18 19 19 19 20 20 21 21 21 22 23 21 18 16 17 17 17 20 22 22 20 20 21 22 24 26 27 26 25 23 22 24 25 26 27 28 28 29 29 28 26 24 23 21 21 19 18 17 17 18 17 17 18 18 17 16 15 15 14 14 15 16 17 17 16 14 13 12 12 11 12 13 12 12 11 9 8 8 7 7 7
18 18 18 18 18 18 17 16 17 17 18 19 20 20 21 21 20 19 18 17 16 15 16 18 18 18 17 17 18 21 24 25 23 22 21 21 22 23 24 24 25 25 25 24 23 21 19 18 17 15 15 15 15 15 14 14 16 16 16 15 15 15 15 14 15 16 16 15 15 14 14 14 14 14 14 14 13 12 11 10 9 8 7 7 8
20 18 18 18 18 18 16 14 14 14 15 17 18 18 18 18 19 19 19 19 17 15 14 16 17 18 18 16 16 17 20 20 20 19 18 18 19 19 20 20 20 20 19 18 19 18 17 16 14 13 13 13 13 12 11 11 13 15 14 14 15 15 15 15 15 15 15 15 15 16 16 17 17 15 14 13 13 12 12 11 9 8 8 7 8
19 19 18 18 19 19 16 13 12 12 12 14 14 15 16 16 16 17 17 17 17 16 16 16 16 16 18 18 17 17 17 17 16 16 16 16 16 17 17 16 16 16 15 14 15 15 14 13 12 11 11 11 11 11 11 11 12 14 14 15 15 16 16 16 16 17 16 17 18 18 18 18 18 15 13 12 12 12 12 12 10 8 7 7 8
16 16 17 17 19 20 19 16 13 10 10 11 11 11 13 14 15 15 14 14 15 15 15 15 14 14 15 15 15 15 15 14 14 14 14 14 13 13 13 12 12 12 11 10 11 11 10 10 10 9 10 11 13 14 14 15 16 17 18 18 18 18 18 18 18 17 18 18 19 19 19 19 18 17 16 14 12 11 11 10 9 8 8 8 8
16 16 16 17 17 18 20 21 18 12 9 9 9 9 9 10 11 12 12 12 12 12 13 13 13 13 14 13 12 11 10 10 10 10 9 9 9 9 8 8 7 7 6 6 7 8 7 8 10 11 12 14 16 17 18 18 18 19 20 20 20 20 20 19 18 18 19 19 19 19 19 19 19 18 16 13 11 9 9 9 8 9 9 9 8
18 18 18 17 16 16 19 22 21 16 11 8 8 8 8 7 8 9 10 10 11 11 10 10 10 10 11 11 11 10 8 7 7 7 6 5 5 6 6 6 5 4 3 2 4 6 7 8 10 11 13 16 17 18 19 19 19 20 21 22 22 21 20 20 19 19 19 20 20 19 19 18 16 15 14 12 10 10 10 10 10 10 9 8 7
18 18 19 17 14 14 17 19 21 19 15 10 8 7 7 7 6 7 7 8 9 11 11 10 9 7 7 8 9 9 8 7 7 6 6 5 5 5 4 4 3 2 1 1 4 6 8 9 11 13 15 17 18 19 20 20 20 21 22 23 22 21 20 19 19 19 19 19 19 18 17 16 14 11 10 11 10 10 11 11 11 10 9 8 7
17 17 18 17 14 14 15 17 19 20 18 13 10 8 7 6 6 6 7 7 8 10 12 12 10 7 6 6 6 7 8 8 8 8 8 7 6 4 3 2 3 3 3 4 6 8 10 11 13 16 18 19 20 20 21 21 21 22 22 22 21 20 19 18 18 19 18 18 18 18 17 17 16 13 12 13 13 12 11 11 10 10 9 7 7
16 17 18 16 14 12 13 15 16 17 17 16 13 9 7 6 6 5 6 6 7 8 10 12 11 8 6 5 5 6 6 7 7 7 6 5 4 4 3 2 5 7 7 8 9 10 12 14 16 17 18 19 20 21 21 20 20 20 20 20 19 19 19 18 18 18 18 18 18 18 17 18 17 15 14 15 14 12 11 10 9 9 8 7 6
16 16 16 16 13 11 11 12 14 15 16 16 14 10 7 6 5 5 5 6 7 7 7 8 8 6 5 5 5 5 5 5 5 4 4 4 5 5 1 4 8 10 10 11 12 13 14 15 16 16 17 18 19 19 19 19 19 19 19 19 19 18 18 17 17 17 17 17 17 17 17 18 18 15 13 12 12 11 10 9 8 7 8 8 7
16 15 14 15 14 13 10 10 11 13 15 15 15 13 11 8 5 4 5 6 8 8 7 5 5 4 3 3 3 4 5 5 5 6 7 7 5 2 5 8 10 11 12 12 13 13 14 14 15 16 17 17 18 18 18 18 18 18 18 19 18 18 17 16 16 16 16 15 15 15 15 15 15 14 12 11 11 10 9 8 7 6 7 8 7
15 15 15 15 16 16 13 10 9 11 13 13 14 14 14 12 8 5 5 6 8 8 7 5 4 3 1 2 3 4 5 6 6 8 9 7 4 6 9 10 11 12 12 11 11 11 12 13 15 16 16 17 17 17 17 18 18 18 18 17 16 15 14 13 13 13 13 12 12 12 12 12 12 11 10 10 10 9 8 8 7 7 7 7 6
12 14 16 17 17 17 16 13 9 10 12 12 12 12 13 13 10 7 6 7 8 8 7 6 4 2 0 1 3 5 6 6 7 8 7 5 3 6 10 11 11 10 10 10 10 11 12 14 15 16 16 16 16 16 17 16 16 16 16 15 15 14 13 12 11 11 12 11 11 11 11 10 9 9 9 9 9 8 7 7 7 7 7 6 5
11 12 15 16 16 17 17 14 10 9 11 12 11 10 11 12 11 9 8 8 9 9 9 8 5 1 2 1 3 5 6 6 6 6 6 4 2 5 9 11 11 9 8 9 10 11 12 14 15 14 14 15 15 15 15 15 14 15 14 14 14 14 13 12 12 12 12 11 10 10 9 8 8 8 8 8 8 7 7 6 6 6 6 5 4
11 11 13 14 14 15 16 15 11 9 10 10 10 9 10 10 10 9 9 10 10 9 9 9 7 2 1 1 4 6 7 7 6 5 5 3 2 3 8 10 10 9 8 8 9 11 12 12 13 13 13 13 13 13 13 13 12 12 11 11 11 11 10 11 11 11 11 10 9 9 8 8 8 8 8 7 6 6 6 6 6 5 6 6 7
10 10 11 12 12 13 14 14 12 10 9 9 9 9 9 9 9 9 9 10 10 10 8 7 7 5 4 5 6 6 7 7 6 5 3 3 3 3 7 9 10 10 8 6 7 9 10 10 10 11 10 11 11 10 10 10 10 9 8 8 9 9 9 9 9 9 8 8 8 8 8 7 7 7 6 6 6 6 5 5 5 5 6 7 8
10 10 10 11 11 12 12 12 12 11 10 9 8 8 7 7 7 8 7 8 10 10 8 7 7 6 5 5 6 6 7 6 6 4 1 2 2 3 4 6 6 7 7 6 6 8 9 9 9 9 9 9 9 8 8 8 8 7 6 6 7 7 8 8 7 7 7 6 6 6 6 5 5 5 5 5 5 5 6 6 6 6 6 7 8
9 10 10 10 12 12 11 11 10 10 10 9 8 7 7 6 6 6 6 6 7 8 6 5 4 5 5 5 6 7 7 6 6 5 1 2 3 3 3 3 4 6 7 6 7 8 8 8 8 8 8 8 7 6 6 6 6 6 6 6 6 6 6 6 6 5 5 6 6 5 4 4 4 5 5 4 5 5 6 6 6 6 6 6 7
8 9 10 11 13 14 12 10 9 10 11 10 8 7 7 6 6 5 5 5 5 5 5 4 4 4 5 6 7 7 7 6 6 5 1 3 4 4 3 4 7 8 8 7 7 8 8 7 7 7 7 7 6 6 6 5 4 5 5 6 6 6 6 5 5 4 5 6 6 5 4 3 3 3 3 4 4 5 6 5 5 6 6 6 5
7 9 10 11 13 13 13 10 9 10 11 10 8 7 7 7 6 5 5 5 5 4 4 5 5 4 5 5 5 6 7 8 7 4 1 3 3 3 3 5 7 7 7 6 5 5 5 5 5 4 4 4 5 6 6 5 5 4 4 5 6 6 5 5 5 5 6 7 6 4 3 3 2 2 2 3 3 4 5 5 5 5 5 5 5
8 9 10 11 12 12 12 11 11 10 10 10 9 8 7 7 6 5 5 5 6 5 5 5 5 5 6 5 5 5 6 7 7 4 1 2 3 3 4 5 6 5 4 4 4 3 3 2 2 2 2 3 4 5 5 5 5 5 5 6 6 6 6 5 5 5 6 6 5 3 3 3 2 2 2 2 2 3 4 4 4 4 4 4 5
10 10 10 11 12 12 11 11 11 11 11 12 11 10 9 7 7 6 5 6 6 7 6 5 6 6 6 5 5 4 4 4 4 4 3 1 0 3 5 6 6 5 4 3 4 3 2 2 1 1 2 2 3 4 4 4 4 5 6 6 7 7 7 6 6 5 6 5 4 2 2 2 1 1 2 2 2 2 3 4 4 4 4 4 4
11 11 11 11 11 10 11 11 12 12 12 13 14 13 11 8 7 6 6 6 7 7 7 6 6 6 5 5 5 4 3 2 2 3 3 2 1 3 5 5 5 5 5 5 5 4 3 2 3 3 3 4 5 5 5 5 5 5 5 6 7 7 7 7 6 6 5 5 3 2 1 1 1 1 1 2 1 1 2 3 4 4 3 3 4
11 12 12 11 10 10 10 12 13 13 13 14 15 15 13 9 7 7 7 7 6 7 7 6 6 5 4 3 5 3 1 2 1 2 2 2 2 3 5 5 5 6 7 6 5 4 3 3 4 4 5 5 6 7 7 6 6 5 5 5 6 6 7 7 7 6 6 5 4 2 1 1 2 2 1 1 0 0 1 2 3 4 3 2 3
Wind_Direction
5 1 359 355 352 350 345 340 338 336 326 308 293 280 271 264 254 246 239 234 238 243 238 235 237 232 225 223 223 220 215 214 218 218 218 222 216 206 205 209 210 209 213 219 220 217 215 213 210 211 212 207 203 205 211 215 216 215 215 215 215 216 216 223 228 195 184 197 190 194 208 211 209 212 215 222 225 223 224 226 221 216 215 217 218
354 351 352 352 350 349 349 348 345 344 337 314 298 288 278 269 254 244 240 235 235 242 242 236 234 230 223 221 221 220 217 214 214 215 215 219 218 207 205 212 211 204 203 207 209 211 211 208 207 210 210 205 198 198 205 209 210 212 213 214 213 214 214 215 221 209 187 193 193 196 208 209 207 212 217 221 225 225 226 228 226 221 221 221 222
349 347 346 346 348 349 350 350 349 347 340 320 305 294 282 277 262 245 240 237 233 238 242 236 230 227 223 224 224 221 218 216 213 212 210 211 215 213 208 211 210 204 202 201 203 208 208 204 206 208 204 199 195 199 206 207 206 208 212 213 211 211 212 212 216 213 195 187 192 197 206 207 206 214 220 222 226 226 226 231 231 227 226 225 226
349 348 346 344 348 351 351 350 349 346 341 328 315 302 284 274 270 259 248 240 232 233 240 237 228 224 222 225 227 223 218 215 212 210 209 208 211 215 213 209 208 210 211 208 206 209 208 204 205 206 200 194 195 199 203 204 207 210 210 211 211 210 210 210 212 213 206 195 190 193 204 209 209 216 222 224 228 228 226 229 233 232 231 231 231
350 349 348 347 349 352 352 351 348 345 342 333 321 309 296 281 273 267 258 247 234 225 230 232 226 223 222 224 226 223 217 214 209 206 205 205 208 215 217 213 213 215 215 213 212 212 210 207 206 206 202 199 199 200 200 201 204 208 209 210 210 209 210 210 209 209 211 206 193 193 203 206 208 219 224 223 225 228 227 229 233 234 233 233 235
353 351 351 351 352 353 352 351 349 345 341 336 327 316 307 295 283 272 264 259 251 236 227 225 222 220 220 221 223 222 217 213 208 203 202 204 209 214 215 215 216 216 215 215 215 216 215 209 207 208 207 204 203 201 200 200 201 205 208 209 209 208 208 208 207 207 213 213 199 196 203 204 205 217 224 221 218 221 224 228 232 234 233 233 235
355 353 353 354 354 353 352 351 350 347 342 337 330 322 313 303 291 280 273 269 264 253 238 229 225 222 218 217 220 220 218 214 209 205 203 205 208 210 210 214 217 218 219 219 218 219 216 210 210 212 211 209 207 204 202 200 202 208 209 208 208 207 205 206 206 207 212 216 210 200 201 204 203 209 222 224 220 218 219 222 227 231 233 235 235
357 355 355 354 353 352 350 349 351 348 345 342 336 329 319 308 296 285 281 276 266 255 243 235 233 228 220 215 218 220 217 214 210 206 204 206 208 209 210 214 218 219 222 220 217 218 216 211 213 215 215 215 213 211 211 207 204 208 211 212 211 208 205 202 202 207 212 215 214 204 194 198 198 199 208 212 211 216 219 217 217 222 229 234 236
1 359 358 356 352 350 349 350 350 348 347 349 347 341 329 316 305 291 285 283 274 260 247 240 237 234 226 217 217 219 217 214 210 204 203 204 206 208 211 215 217 216 213 209 208 215 216 212 214 216 217 218 217 218 220 218 215 213 212 213 211 207 206 200 198 206 211 213 215 203 191 194 195 194 200 204 205 211 217 218 217 212 219 231 238
6 3 1 358 354 352 351 351 351 349 348 349 350 349 341 328 317 302 289 286 280 267 251 241 236 234 230 220 215 217 217 215 211 205 201 202 203 207 211 213 214 212 208 204 201 206 210 209 212 215 218 219 217 216 219 221 223 222 221 221 214 206 203 202 204 208 209 214 214 194 185 203 203 198 205 212 212 213 215 219 218 214 220 229 237
8 6 3 359 357 357 355 353 352 352 350 347 349 353 349 340 329 314 299 291 284 268 249 241 235 231 230 224 218 218 217 216 213 207 203 202 203 205 208 210 211 212 211 208 202 201 205 207 210 212 215 216 215 215 214 212 214 218 223 226 223 215 209 208 210 211 212 217 207 181 193 223 229 217 216 217 217 217 216 215 212 206 217 226 226
8 8 5 1 360 1 358 355 354 354 353 350 350 354 354 350 341 327 312 302 289 268 249 241 236 231 230 227 223 221 216 213 212 208 204 203 203 205 207 209 212 214 212 209 207 205 205 204 204 205 207 209 209 210 209 204 203 209 212 214 217 219 219 218 217 215 214 213 195 179 198 218 226 224 222 221 219 216 211 211 211 204 210 223 222
9 9 7 4 2 2 0 359 357 355 355 353 352 355 357 356 351 341 328 315 298 275 256 245 237 235 234 230 225 221 217 213 212 208 205 203 203 205 207 209 212 215 213 207 204 202 200 198 196 196 197 199 202 205 205 201 200 204 209 210 213 218 222 225 225 222 219 214 202 195 204 214 220 222 228 236 228 212 200 204 209 207 212 222 218
11 10 8 6 4 3 2 2 1 359 357 356 356 358 358 359 359 353 344 334 322 297 266 246 237 235 234 230 226 220 216 214 211 206 204 204 202 202 205 209 211 212 211 207 202 199 198 195 192 191 191 193 197 200 200 197 195 197 202 207 212 217 222 226 228 226 222 215 208 210 214 217 221 226 235 239 230 214 203 204 207 210 216 222 212
14 12 8 7 6 5 4 4 3 2 1 0 1 2 2 1 3 5 2 357 352 340 296 245 234 230 225 223 223 218 213 211 207 203 202 202 201 200 204 207 206 207 207 203 198 196 195 192 190 188 188 189 192 195 196 193 189 186 186 187 195 207 215 223 226 224 219 213 209 218 222 220 221 221 213 212 214 210 204 201 201 202 199 198 191
17 12 9 9 9 8 8 7 6 6 5 5 6 6 7 7 6 8 13 16 16 10 6 338 231 217 209 211 214 212 208 205 202 200 199 199 200 199 200 201 199 199 199 194 191 190 187 184 184 184 183 183 183 186 191 187 178 170 162 151 146 146 147 166 194 202 201 195 188 192 193 182 175 172 167 171 178 176 169 167 169 178 185 186 173
18 13 11 13 12 12 12 11 11 11 10 11 12 11 12 13 13 15 20 27 33 35 36 42 55 139 176 187 191 193 197 195 191 192 194 196 197 194 191 190 187 185 183 182 181 180 178 177 179 179 178 176 173 176 182 179 167 157 146 134 125 118 113 114 122 133 144 149 147 144 141 138 138 142 145 150 153 149 143 143 148 169 206 212 179
18 14 13 15 17 19 19 18 18 18 17 17 16 17 18 19 21 24 28 32 37 44 53 61 65 78 104 123 128 130 140 156 165 171 179 188 192 190 184 179 174 172 171 171 171 171 172 173 175 175 173 169 165 165 168 166 157 148 141 133 125 119 118 119 119 120 123 127 128 128 128 128 129 130 131 139 149 150 150 151 149 162 206 204 148
21 19 19 21 23 24 26 27 26 26 26 25 24 23 25 28 32 36 39 41 41 45 55 63 65 66 77 92 103 102 100 111 138 155 165 174 179 181 181 174 166 162 161 162 163 165 167 169 172 173 170 164 160 157 158 160 157 152 149 142 132 127 128 129 127 125 124 123 122 122 121 121 122 119 116 118 126 135 143 146 138 129 128 114 93
26 26 28 30 31 32 36 39 38 35 34 34 34 34 33 36 41 44 46 48 48 47 50 56 60 57 60 76 88 90 88 94 110 134 153 160 162 167 173 171 164 158 155 155 155 156 159 164 169 171 168 165 163 163 166 175 174 166 160 153 143 138 138 137 134 135 132 126 122 118 114 112 111 108 106 104 103 105 111 117 116 111 104 99 92
30 31 32 35 37 39 43 46 47 46 44 42 42 42 40 40 44 47 49 50 51 49 46 49 56 53 50 63 75 77 78 83 89 101 126 143 150 156 158 157 156 154 149 146 145 145 148 154 160 168 172 172 173 175 179 183 179 169 164 159 152 147 143 138 135 133 128 121 116 110 105 102 99 94 91 89 86 84 83 81 84 90 88 87 92
30 31 32 34 38 41 42 43 45 46 45 45 45 45 42 42 45 47 50 51 52 51 45 43 50 52 47 54 65 70 71 76 81 83 97 124 141 147 141 136 141 144 138 130 127 127 130 133 139 153 166 170 172 173 172 172 170 167 163 158 152 147 141 135 131 126 120 113 108 103 99 96 92 87 82 78 74 72 71 68 68 73 79 87 100
30 31 31 32 35 38 38 38 40 43 43 44 45 45 43 42 42 43 45 47 50 50 47 42 44 48 47 48 57 64 67 71 75 77 83 100 120 131 131 128 131 132 125 117 113 112 113 114 118 129 144 150 152 153 154 155 155 153 151 148 146 144 140 135 129 123 115 110 105 99 95 93 89 83 77 73 70 68 70 72 72 71 72 81 91
31 31 30 31 33 35 36 37 39 42 44 45 44 45 45 43 40 39 38 41 44 46 46 45 44 45 48 49 51 59 66 69 71 75 79 88 98 106 113 117 121 119 112 107 105 105 105 106 109 115 123 128 132 133 133 134 134 134 137 140 141 141 139 135 131 125 117 110 104 98 95 92 89 85 80 76 77 78 78 78 77 78 80 79 74
30 30 29 29 31 33 34 36 38 42 45 45 42 44 45 42 38 38 39 39 41 42 43 46 46 47 50 51 51 56 64 70 72 75 81 86 91 96 101 106 110 109 104 101 100 100 100 101 102 104 105 110 116 119 120 122 126 129 133 137 139 138 137 135 132 125 112 103 101 101 99 98 96 94 92 90 91 89 83 77 76 81 87 82 71
29 28 26 25 26 29 32 34 36 40 45 47 47 46 46 43 36 37 41 40 41 41 40 42 45 47 49 52 54 58 63 68 73 78 83 87 90 95 100 103 105 104 103 102 101 100 100 100 99 98 98 100 104 107 110 118 125 129 132 135 136 136 135 134 132 125 115 111 111 110 110 110 106 101 98 98 98 92 83 78 79 83 88 89 83
26 24 22 21 21 23 26 29 31 34 38 42 45 44 43 42 37 35 37 37 38 41 42 41 42 45 47 52 57 62 64 67 72 77 82 87 92 97 101 103 104 103 103 103 101 99 96 94 94 95 95 97 99 102 106 114 120 122 124 127 127 127 127 127 127 124 121 121 122 120 120 118 111 104 102 101 98 92 85 83 85 84 84 91 91
24 20 18 19 19 20 21 22 26 29 30 33 38 39 39 40 40 38 37 35 34 37 43 47 47 48 50 51 55 61 64 66 69 74 79 87 93 97 99 100 100 98 97 97 97 95 91 88 88 90 92 95 99 104 106 108 109 112 115 119 120 119 120 121 120 120 122 124 124 124 123 118 110 106 104 101 97 94 90 86 86 83 80 81 82
24 20 18 18 19 19 18 16 19 24 26 28 33 35 35 36 39 40 39 39 39 38 43 50 53 54 57 59 59 61 63 63 67 74 79 85 92 97 100 100 98 96 94 94 95 95 93 90 88 88 90 93 95 98 102 105 107 109 112 116 118 117 117 117 117 118 121 124 123 122 120 116 109 102 99 96 94 94 93 88 84 83 84 84 82
21 20 18 18 18 17 16 14 15 17 20 23 27 31 31 31 34 38 39 40 44 45 44 46 48 50 57 64 67 69 68 69 75 81 83 84 89 94 97 98 98 98 98 97 97 96 95 94 92 92 94 99 104 110 115 119 120 119 119 119 119 116 114 112 113 117 119 120 118 116 113 110 106 101 98 95 92 91 93 91 88 88 90 89 82
18 16 16 17 18 18 18 18 17 14 14 17 19 22 26 28 30 33 36 38 41 44 45 44 42 43 49 56 63 67 69 70 75 79 83 87 91 94 96 99 100 100 98 96 98 101 105 107 112 116 117 118 122 125 127 127 125 123 121 118 115 113 112 110 112 116 116 113 111 109 107 106 105 104 103 99 94 92 92 91 88 87 84 79 72
18 15 15 16 18 21 23 24 24 20 12 12 11 10 16 24 28 30 32 33 35 37 40 40 39 39 42 45 48 52 54 58 62 66 72 81 87 92 98 103 105 104 101 96 97 108 120 124 126 131 131 129 129 128 126 125 124 122 119 114 110 110 111 112 115 117 114 112 110 108 107 106 105 105 102 99 97 96 92 86 82 77 73 71 66
21 17 16 16 16 21 26 28 27 24 17 10 7 4 6 14 20 24 26 28 28 26 27 32 35 37 39 41 41 41 43 47 50 54 61 74 86 93 98 105 112 114 110 105 111 123 132 131 131 133 132 130 129 128 126 125 124 121 117 114 112 112 112 114 116 116 113 112 111 109 109 107 104 102 100 96 94 90 82 74 69 65 63 62 56
19 17 16 17 17 23 30 30 28 27 24 15 5 2 3 6 9 11 14 18 20 19 18 22 28 35 40 43 45 47 52 53 54 59 67 80 93 99 99 104 111 111 110 162 148 141 138 134 132 134 134 131 129 127 126 126 124 120 117 115 114 114 115 116 116 114 112 112 110 108 108 107 103 100 97 93 88 81 75 68 63 60 58 52 44
17 15 16 20 23 29 32 31 29 29 27 21 12 2 355 355 358 3 7 12 16 17 17 20 27 36 43 47 54 62 69 72 73 74 78 80 79 71 52 50 71 83 98 123 136 138 136 134 133 133 133 132 130 128 126 125 123 120 118 117 116 116 116 116 115 114 113 111 109 107 105 103 99 95 91 88 82 76 71 67 61 57 52 45 40
14 13 14 19 25 30 29 28 29 30 28 26 22 10 356 350 348 355 7 11 11 15 19 24 31 41 51 58 65 72 80 86 87 84 81 74 49 11 351 59 102 107 111 117 126 132 133 132 132 133 132 132 131 129 127 125 124 122 120 120 120 119 117 115 114 113 111 108 107 105 102 99 94 89 83 80 76 72 69 66 61 56 48 42 42
14 13 11 12 16 20 21 22 24 25 26 28 27 20 10 0 347 346 0 8 10 14 18 22 32 47 62 70 74 75 75 73 70 61 41 9 346 331 306 130 121 117 117 119 123 125 128 129 130 132 133 133 132 131 129 127 125 124 123 122 121 119 117 115 114 113 110 107 106 104 100 96 90 82 76 73 71 69 67 63 61 58 48 41 41
15 15 12 8 6 5 5 9 14 16 21 27 29 27 26 21 4 352 2 9 12 10 5 6 22 44 65 77 75 67 57 45 29 20 13 5 3 55 128 126 121 118 118 121 123 123 124 128 132 133 134 134 132 131 130 128 127 127 126 123 119 116 113 112 112 111 108 105 102 99 95 90 83 75 71 71 70 69 67 61 57 55 45 38 39
15 16 15 10 5 2 357 355 1 10 18 26 30 31 32 31 24 14 12 14 13 10 4 356 352 357 43 92 75 45 31 23 20 21 20 20 52 124 131 124 121 120 120 121 123 123 125 130 134 135 135 134 132 131 130 129 129 128 126 122 119 116 113 111 109 106 102 98 95 91 88 85 80 74 73 73 71 69 67 59 51 45 40 38 37
8 10 10 7 4 0 357 355 358 7 16 24 30 32 34 33 31 27 22 15 10 9 10 6 354 340 21 82 47 24 10 6 15 22 22 28 86 140 142 132 125 126 131 131 128 126 128 132 134 135 134 132 131 130 129 129 129 129 126 123 120 117 114 110 106 102 98 94 91 89 88 86 83 79 76 75 71 65 59 54 50 45 40 36 32
359 0 2 1 360 359 357 357 359 5 12 19 25 30 35 35 31 25 19 13 8 8 12 14 16 39 185 182 24 15 359 354 7 17 20 30 81 148 156 145 131 127 137 140 135 132 134 134 134 135 136 135 134 132 130 129 129 128 127 124 119 114 109 106 104 102 100 95 92 91 91 88 84 81 77 72 67 61 56 55 56 52 44 40 37
355 357 358 359 0 360 358 357 358 360 5 12 18 24 30 33 29 21 15 13 10 7 7 9 14 26 187 27 24 11 354 350 360 8 17 40 77 142 156 148 136 131 138 144 142 142 143 140 137 136 137 137 137 137 134 132 130 129 127 124 118 112 106 102 101 100 99 97 94 94 94 91 87 84 79 72 70 68 63 63 67 63 53 47 43
1 1 2 4 3 359 356 357 357 354 354 359 5 12 21 29 27 21 18 16 13 10 10 20 34 45 43 30 21 3 348 350 354 357 22 70 90 126 141 139 132 131 135 143 147 150 153 152 148 146 144 141 139 139 139 136 134 132 129 125 119 113 105 100 97 94 95 97 98 97 97 96 94 90 84 78 79 77 69 65 68 63 51 45 43
8 5 5 7 4 356 349 348 351 351 348 348 350 356 6 19 25 22 18 18 18 18 20 31 42 42 26 11 4 353 348 359 5 359 18 118 102 107 132 138 133 130 131 132 136 143 151 156 155 153 152 149 145 142 139 136 133 129 126 122 118 112 105 101 98 97 101 107 108 106 106 107 107 105 96 82 75 75 71 65 60 53 47 46 46
7 5 1 360 0 356 344 337 340 346 345 340 335 337 346 359 11 14 12 10 14 17 17 16 17 12 1 1 5 0 356 5 11 0 348 149 126 111 125 149 157 154 149 139 131 133 140 148 150 151 154 156 154 150 145 139 133 129 126 123 121 119 117 115 113 112 118 125 128 127 127 126 125 121 109 88 67 63 64 59 49 44 45 49 50
359 360 355 352 355 356 353 346 344 346 346 342 330 318 321 335 346 351 354 354 357 2 1 351 345 348 354 2 7 357 346 345 351 348 337 146 132 120 120 134 146 153 153 143 131 129 132 137 142 147 155 161 165 167 164 157 150 145 141 138 138 139 138 138 139 140 143 145 147 146 140 135 134 127 113 91 69 57 54 52 49 46 47 51 55
346 351 349 346 348 352 355 355 350 344 344 346 338 316 305 310 319 325 329 329 328 329 333 332 330 333 343 351 350 343 342 347 350 342 238 175 173 181 160 141 142 149 153 150 144 139 136 136 139 145 160 175 186 190 190 188 184 180 174 165 161 162 165 166 163 159 158 157 155 151 139 128 126 119 98 83 70 58 51 50 52 51 47 50 56
339 341 342 343 344 345 347 350 347 340 338 340 338 325 308 298 295 299 306 312 311 308 309 317 321 324 329 331 325 327 346 0 3 357 329 235 227 216 191 168 159 157 163 177 183 180 172 167 170 179 190 196 198 197 197 200 200 195 189 183 182 186 189 184 173 163 162 162 158 145 124 110 102 98 93 90 82 64 50 44 45 46 43 44 52
338 336 336 338 338 337 337 340 340 338 336 335 333 330 322 304 287 281 288 297 297 294 294 302 311 318 324 323 313 311 333 355 7 20 28 19 209 175 171 173 173 168 168 178 183 182 181 183 178 163 157 159 164 169 173 178 180 183 185 188 191 193 194 188 177 167 164 163 158 142 119 111 111 100 97 102 99 73 49 37 33 33 34 35 43
341 336 333 334 334 333 336 338 336 334 334 332 329 328 325 315 293 274 269 277 284 286 287 294 302 304 308 320 322 314 298 298 344 30 49 51 113 144 147 154 160 158 152 152 154 153 148 143 140 138 135 135 137 140 144 149 157 166 176 185 190 193 194 190 182 175 170 169 166 154 122 130 157 161 127 112 107 72 36 24 19 18 24 36 50
345 339 335 333 331 329 333 337 337 334 329 326 323 322 320 318 309 285 264 263 278 286 282 284 293 291 286 316 340 334 252 217 345 35 59 92 131 136 133 134 143 149 150 149 151 151 148 144 145 142 136 133 131 131 131 134 141 150 160 173 184 192 197 197 195 192 189 186 183 181 171 160 164 174 178 172 158 318 334 352 360 358 1 33 67